Regional Weather Roundup
Issued by NWS Spokane, WA

Home | Current Version | Previous Version | Text Only | Print | Product List | Glossary On
Versions: 1 2 3 4 5 6 7 8 9 10 11 12 13 14 15 16 17 18 19 20 21 22 23 24 25 26 27 28 29 30 31 32 33 34 35 36 37 38 39 40 41 42 43 44 45 46 47 48 49 50
177
NZUS01 KOTX 281305
RWROTX

Eastern Washington/Northern Idaho Roundup
National Weather Service, Spokane WA
600 AM PDT FRI APR 28 2017

Note: "fair" indicated few or no clouds below 12,000 feet with no
significant weather and/or obstructions to visibility.

...Northeast Washington and Northern Idaho Panhandle...

CITY           SKY/WX    TMP DP  RH WIND       PRES   REMARKS
Spokane Intl   MOCLDY    37  32  82 S7        30.04R
Spokane Downto MOCLDY    38  36  92 CALM      30.06R
Coeur d Alene  MOCLDY    39  33  79 S8        30.05R
Deer Park      FOG       31  28  89 E5        30.05R VSB<1/4 WCI  26
Sandpoint      CLOUDY    36  36 100 CALM      30.04R
Bonners Ferry  CLOUDY    39  37  93 S5        30.02R

...Southeast Washington and southern Idaho Panhandle...

CITY           SKY/WX    TMP DP  RH WIND       PRES   REMARKS
Walla Walla    CLOUDY    42  33  70 S13       30.16R
Pullman/Moscow PTCLDY    36  31  82 W9        30.08R
Lewiston       CLOUDY    45  36  70 CALM      30.08R
Lowell           N/A     40  37  89 CALM      30.12R
Grangeville    CLOUDY    32  32 100 CALM      30.06R

...Columbia Basin...

CITY           SKY/WX    TMP DP  RH WIND       PRES   REMARKS
Ephrata        MOCLDY    48  24  39 N16       30.06R
Moses Lake     CLOUDY    47  28  47 W8        30.09R
Pasco          MOCLDY    42  32  67 S6        30.16R
Richland       CLOUDY    42  32  67 S7        30.15R
Hermiston      CLEAR     41  32  70 SW14      30.17R
Pendleton      CLEAR     39  30  70 W14       30.15R

...East Slopes Cascades...

CITY           SKY/WX    TMP DP  RH WIND       PRES   REMARKS
The Dalles     CLEAR     45  32  60 W7        30.22R
Yakima         CLEAR     41  27  57 W6        30.15R
Ellensburg     CLEAR     40  30  67 NW16G26   30.13R
Stampede Pass  FOG       30  30 100 VRB5      30.15R VSB 1/4 WCI  25
Wenatchee      MOCLDY    44  28  53 NW10      30.13R
Omak           CLEAR     38  28  67 NW8       30.10R
Sunnyside      SUNNY     31  28  90 CALM      30.15R

...Southern British Columbia...

CITY           SKY/WX    TMP DP  RH WIND       PRES   REMARKS

...Western Montana...

CITY           SKY/WX    TMP DP  RH WIND       PRES   REMARKS
Kalispell      CLOUDY    39  38  96 CALM      29.99R
Libby            N/A     36  34  93 CALM      30.01R
Missoula       CLOUDY    38  34  85 CALM      30.02R

...Neighboring Cities...

CITY           SKY/WX    TMP DP  RH WIND       PRES   REMARKS
Seattle        CLOUDY    43  41  93 SW5       30.29R
Portland       MOCLDY    41  39  93 E7        30.32R
Boise          CLEAR     35  31  85 NW6       30.02R
Great Falls    CLOUDY    36  33  89 SW3       29.95R



USA.gov is the U.S. government's official web portal to all federal, state and local government web resources and services.